Regional Weather Roundup
Issued by NWS

Home | Current Version | Previous Version | Graphics & Text | Print | Product List | Glossary Off
Versions: 1 2 3 4 5 6 7 8 9 10 11 12 13 14 15 16 17 18 19 20 21 22 23 24 25 26 27 28 29 30 31 32 33 34 35 36 37 38 39 40 41 42 43 44 45 46 47 48 49 50

000
ASUS45 KBOI 221410
RWRID

IDAHO REGIONAL WEATHER ROUNDUP
NATIONAL WEATHER SERVICE BOISE ID
800 AM MDT SAT JUL 22 2017

NOTE: "FAIR" INDICATES FEW OR NO CLOUDS BELOW 12000 FEET
WITH NO SIGNIFICANT WEATHER AND/OR OBSTRUCTIONS TO VISIBILITY

IDZ012-014-221500-
SOUTHWEST IDAHO


CITY           SKY/WX    TMP DP  RH WIND       PRES   REMARKS
BOISE          SUNNY     64  40  41 CALM      30.13R
CALDWELL       SUNNY     65  42  43 SW8       30.13R HAZE
MOUNTAIN HOME  SUNNY     69  39  32 NW14      30.12R
$$

IDZ016-017-221500-
SOUTHCENTRAL IDAHO


CITY           SKY/WX    TMP DP  RH WIND       PRES   REMARKS
BURLEY         SUNNY     60  47  61 CALM      30.17R
JEROME         SUNNY     61  41  47 S5        30.18R
TWIN FALLS     SUNNY     66  37  34 S14       30.18R
$$

IDZ019>023-221500-
SOUTHEAST IDAHO


CITY           SKY/WX    TMP DP  RH WIND       PRES   REMARKS
IDAHO FALLS    SUNNY     57  43  59 VRB3      30.22R
POCATELLO      SUNNY     69  35  28 SW6       30.20R
REXBURG        SUNNY     55  43  63 CALM      30.22R
$$

IDZ006-010-011-018-031-032-221500-
CENTRAL IDAHO MOUNTAINS


CITY           SKY/WX    TMP DP  RH WIND       PRES   REMARKS
MCCALL         SUNNY     52  37  56 CALM      30.25R
HAILEY         SUNNY     55  36  47 NW10      30.26R
STANLEY          N/A     43  32  65 E3        30.37R
SALMON         NOT AVBL
CHALLIS        SUNNY     56  38  50 CALM      30.27R
$$

IDZ002-004-006-007-026-221500-
NORTHERN IDAHO


CITY           SKY/WX    TMP DP  RH WIND       PRES   REMARKS
LEWISTON       SUNNY     63  42  46 E3        30.18R
LOWELL           N/A     52  46  80 CALM      30.24R
COEUR D`ALENE  SUNNY     60  49  66 SE5       30.19R
MULLAN PASS    SUNNY     56  33  42 VRB3      30.32R
$$



USA.gov is the U.S. government's official web portal to all federal, state and local government web resources and services.